Weather History for KACT - November, 2014

Change the Weather History Date:

Sunday, November 9, 2014

  Actual Average Record
Temperature  
Mean Temperature 55 °F 60 °F  
Max Temperature 72 °F 71 °F 89 °F (1980)
Min Temperature 37 °F 49 °F 28 °F (1938)
Degree Days  
Heating Degree Days 10 7  
Month to date heating degree days 66 50  
Since 1 July heating degree days 78 117  
Cooling Degree Days 0 2  
Month to date cooling degree days 1 20  
Year to date cooling degree days 2744 2776  
Growing Degree Days 4 (Base 50)    
Moisture  
Dew Point 41 °F    
Average Humidity 67    
Maximum Humidity 100    
Minimum Humidity 34    
Precipitation  
Precipitation 0.00 in 0.10 in 2.01 in (1905)
Month to date precipitation 1.83 0.94  
Year to date precipitation 28.70 30.06  
Snow  
Snow 0.00 in 0.00 in 0.00 in ()
Month to date snowfall 0.0 0.0  
Since 1 July snowfall 0.0 0.0  
Since 1 September snowfall 0.0 0.0  
Snow Depth 0.00 in    
Sea Level Pressure  
Sea Level Pressure 30.04 in    
Wind  
Wind Speed 8 mph (SSW)    
Max Wind Speed 16 mph    
Max Gust Speed 20 mph    
Visibility 10 miles    
Events      
T = Trace of Precipitation, MM = Missing Value Source: NWS Daily Summary

Daily Weather History Graph

Daily Weather History Graph

Search for Another Location

Airport or City:

Trip Planner

Search our weather history database for the weather conditions in past years. The results will help you decide how hot, cold, wet, or windy it might be!

Date:

Astronomy

Nov. 09, 2014 Rise Set
Actual Time 6:51 AM CST 5:33 PM CST
Civil Twilight 6:26 AM CST 5:58 PM CST
Nautical Twilight 5:57 AM CST 6:27 PM CST
Astronomical Twilight 5:28 AM CST 6:56 PM CST
Moon 8:10 PM CST (11/9) 9:22 AM CST (11/9)
Length of Visible Light 11h 32m
Length of Day
10h 41m
Waning Gibbous, 91% of the Moon is Illuminated
Nov 9
Waning Gibbous
Nov 14
Last Quarter
Nov 22
New
Nov 29
First Quarter
Dec 6
Full

Hourly Weather History & Observations

Time (CST) Temp. Windchill Dew Point Humidity Pressure Visibility Wind Dir Wind Speed Gust Speed Precip Events Conditions
12:51 AM 44.1 °F 41.5 °F 37.9 °F 79% 30.16 in 10.0 mi NW 4.6 mph - N/A   Clear
1:51 AM 48.0 °F - 37.9 °F 68% 30.16 in 10.0 mi NNW 6.9 mph - N/A   Clear
2:51 AM 41.0 °F 39.0 °F 37.0 °F 86% 30.16 in 10.0 mi WNW 3.5 mph - N/A   Clear
3:51 AM 39.9 °F - 37.0 °F 89% 30.15 in 10.0 mi Calm Calm - N/A   Clear
4:51 AM 37.9 °F - 37.0 °F 97% 30.15 in 10.0 mi Calm Calm - N/A   Clear
5:51 AM 37.9 °F 34.4 °F 36.0 °F 93% 30.16 in 10.0 mi WSW 4.6 mph - N/A   Clear
6:51 AM 39.0 °F 34.0 °F 37.0 °F 93% 30.16 in 10.0 mi West 6.9 mph - N/A   Clear
7:51 AM 43.0 °F - 39.9 °F 89% 30.15 in 10.0 mi Calm Calm - N/A   Clear
8:51 AM 50.0 °F - 43.0 °F 77% 30.15 in 10.0 mi Calm Calm - N/A   Clear
9:51 AM 57.0 °F - 42.1 °F 57% 30.15 in 10.0 mi South 5.8 mph - N/A   Clear
10:51 AM 61.0 °F - 41.0 °F 48% 30.14 in 10.0 mi SSW 4.6 mph - N/A   Clear
11:51 AM 64.9 °F - 39.0 °F 39% 30.10 in 10.0 mi South 8.1 mph - N/A   Clear
12:51 PM 69.1 °F - 42.1 °F 38% 30.05 in 10.0 mi South 11.5 mph - N/A   Clear
1:51 PM 72.0 °F - 41.0 °F 33% 30.00 in 10.0 mi SSW 11.5 mph - N/A   Clear
2:51 PM 72.0 °F - 41.0 °F 33% 29.97 in 10.0 mi South 15.0 mph - N/A   Clear
3:51 PM 71.1 °F - 42.1 °F 35% 29.96 in 10.0 mi South 11.5 mph - N/A   Clear
4:51 PM 68.0 °F - 45.0 °F 43% 29.93 in 10.0 mi South 13.8 mph - N/A   Clear
5:51 PM 64.0 °F - 44.1 °F 48% 29.92 in 10.0 mi South 12.7 mph - N/A   Clear
6:51 PM 63.0 °F - 45.0 °F 52% 29.91 in 10.0 mi South 13.8 mph - N/A   Clear
7:51 PM 61.0 °F - 44.1 °F 54% 29.91 in 10.0 mi South 15.0 mph - N/A   Clear
8:51 PM 60.1 °F - 44.1 °F 55% 29.89 in 10.0 mi South 13.8 mph - N/A   Clear
9:51 PM 60.1 °F - 43.0 °F 53% 29.88 in 10.0 mi South 13.8 mph - N/A   Clear
10:51 PM 57.9 °F - 44.1 °F 60% 29.88 in 10.0 mi South 12.7 mph - N/A   Clear
11:51 PM 55.9 °F - 44.1 °F 64% 29.87 in 10.0 mi SSW 11.5 mph - N/A   Clear